星链-3235 (STARLINK-3235 )

导读 | 豆包AI

STARLINK-3235是美国SpaceX星链(Starlink)项目中的低轨通信卫星,于北京时间2021年12月18日发射入轨。作为星链星座的组成部分,它旨在为全球提供高速低延迟互联网服务,重点覆盖偏远和网络基础设施薄弱区域。该卫星运行在近地轨道,搭载相控阵天线等设备,为构建全球卫星互联网络提供支撑,目前已在轨飞行超过4年。

基本信息
目录编号:
50200
目录名称:
STARLINK-3235
国际标识:
2021-125AW
轨道中心:
EARTH
卫星名称:
星链-3235
卫星全名:
星链-3235 (STARLINK-3235 )
卫星状态:
在轨 (已飞行1547 天)
发射日期:
2021-12-18 UTC
国别 :
美国 (US)
星等 :
--
轨道信息
数据来源 国际轨道数据
星历时间: 2026-03-14T10:52:18+0800
17小时前
查看轨道信息
半长轴: 6917.898km
偏心率: 0.0001251
轨道倾角: 53.217°
近地点辐角 90.496°
升交点赤经 219.193°
平近点角 269.617°
近地点: 538.895km
远地点: 540.627km
周期: 95.438分钟
每日圈数: 15.088344
详细信息
固有亮度:
5
最大亮度:
2.5
卫星平台:
Starlink v1.5
覆盖范围:
全球
运营商:
太空探索技术公司
运营商所在国:
美国
制造商(研发单位):
太空探索技术公司
制造商所在国:
美国
使用方式:
暂无
卫星简介
星链(Starlink)计划是由太空探索技术公司(SpaceX)提出的一个巨型低轨卫星互联网星座项目,计划在2019年至2024年间在太空搭建由约1.2万颗卫星组成的“星链”网络,其中1584颗将部署在地球上空550千米处的近地轨道,并从2020年开始工作。该卫星仍在工作。
2D轨道图
3D轨道图
轨道高度分析图
轨道倾角分析图
轨道综合分析图
查看轨道综合分析图